Home   Weather   Sarasota   Past weeks

Flag for USA Past Weather in Sarasota, Florida, USA — Yesterday and Last 2 Weeks

Now
74 °F

Thundershowers. Fog.


Feels Like: 73 °F
Forecast: 78 / 89 °F
Wind: 9 mph from Southeast

Location: Sarasota-Bradenton International Airport

Current Time: Sep 26, 2016 at 8:18:52 PM

Latest Report: Sep 26, 2016 at 7:53 PM


Visibility: 3 mi

Pressure: 29.95 "Hg

Humidity: 88%

Dew Point: 70 °F

Location of SarasotaLocation

Past Weather in Sarasota — Graph

°F

Sarasota Temperature Yesterday

Maximum temperature yesterday: 92 °F (at 11:53 AM)
Minimum temperature yesterday: 74 °F (at 6:53 AM)
Average temperature yesterday: 81 °F

High & Low Weather Summary for the Past Weeks

 TemperatureHumidityPressure
High93 °F (Sep 16, 12:53 PM)91% (Sep 26, 4:53 AM)30.05 "Hg (Sep 26, 4:53 AM)
Low73 °F (Sep 26, 7:02 PM)46% (Sep 16, 12:53 PM)29.90 "Hg (Sep 26, 4:53 PM)
Average83 °F73%29.97 "Hg
* Reported Sep 11 7:53 PM — Sep 26 7:02 PM, Sarasota, Weather by CustomWeather, © 2016

Note: Actual official high and low records may vary slightly from our data, if they occured in-between our weather recording intervals... More about our weather records

Advertising

Sarasota Weather History for the Previous 24 Hours

Scroll right to see more
 ConditionsComfort  
Time TempWeatherWind HumidityBarometerVisibility
7:02 PM
Mon, Sep 26
73 °FStrong thunderstorms. Mostly cloudy.14 mph81%29.95 "Hg1 mi
6:58 PM74 °FStrong thunderstorms. Cloudy.15 mph76%29.95 "Hg1 mi
5:53 PM88 °FThunderstorms. Passing clouds.5 mph63%29.90 "Hg10 mi
4:53 PM88 °FThundershowers. Sunny.7 mph63%29.90 "Hg10 mi
3:57 PM89 °FPassing clouds.6 mph61%29.92 "Hg10 mi
2:53 PM88 °FThundershowers. Broken clouds.8 mph55%29.94 "Hg10 mi
1:53 PM88 °FThunderstorms. Partly sunny.9 mph61%29.94 "Hg10 mi
12:53 PM90 °FPassing clouds.9 mph61%29.96 "Hg10 mi
11:53 AM88 °FSunny.7 mph63%29.98 "Hg10 mi
10:53 AM87 °FSunny.5 mph63%29.99 "Hg10 mi
9:53 AM84 °FSunny.8 mph77%29.99 "Hg10 mi
8:53 AM80 °FSunny.8 mph85%29.98 "Hg10 mi
7:53 AM77 °FSunny.5 mph90%29.98 "Hg10 mi
6:53 AM76 °FClear.3 mph88%29.96 "Hg10 mi
5:53 AM76 °FClear.5 mph88%29.95 "Hg10 mi
4:53 AM76 °FClear.5 mph91%29.94 "Hg10 mi
3:53 AM76 °FClear.7 mph88%29.94 "Hg10 mi
2:53 AM75 °FClear.3 mph90%29.94 "Hg10 mi
1:53 AM75 °FClear.5 mph88%29.96 "Hg10 mi
12:53 AM75 °FClear.No wind88%29.98 "Hg10 mi
11:53 PM
Sun, Sep 25
75 °FClear.5 mph88%30.00 "Hg10 mi
10:53 PM74 °FPassing clouds.No wind85%30.00 "Hg10 mi
9:53 PM74 °FPassing clouds.3 mph85%29.98 "Hg10 mi
8:58 PM78 °FThunderstorms. Mostly cloudy.22 mph69%29.99 "Hg10 mi
Weather by CustomWeather, © 2016

See weather overviewHow to use our weather pages